Wind_Speed
42 42 41 40 39 38 39 40 40 40 39 38 38 38 38 38 37 35 34 33 33 33 33 33 32 32 31 31 31 31 31 31 30 29 29 29 29 29 29 29 29 28 27 27 27 26 25 23 22 20 18 18 18 16 14 13 13 11 10 11 11 11 12 11 10 10 11 10 9 9 8 8 9 9 9 9 8 8 9 9 9 10 10 10 10
43 42 40 40 40 40 39 39 40 40 39 39 39 39 39 38 36 34 33 33 34 34 34 34 33 32 32 32 32 33 33 33 32 31 31 31 31 31 31 31 31 30 29 29 29 28 27 25 24 22 20 19 19 18 16 15 15 15 14 14 14 14 14 14 14 12 11 11 10 11 10 10 10 10 9 9 9 9 9 10 10 10 11 11 12
43 42 40 41 41 40 39 38 39 40 40 40 40 40 39 37 36 34 34 34 34 34 35 35 34 33 33 33 33 34 34 34 33 33 33 32 32 33 33 33 33 32 32 31 30 29 28 27 26 24 22 21 21 20 19 18 17 17 17 16 16 16 16 16 16 15 13 11 11 11 11 11 11 11 10 10 9 10 11 12 11 11 12 13 14
41 40 41 41 40 39 39 38 38 40 40 40 39 39 38 37 35 35 34 33 34 34 35 35 35 34 34 34 35 35 35 35 35 35 34 34 34 34 34 34 34 34 33 32 30 29 29 29 28 26 24 23 22 22 21 20 19 17 18 18 17 17 17 17 18 17 14 12 11 11 11 11 11 10 10 11 11 11 13 13 13 13 13 14 15
39 39 40 39 38 39 39 38 39 40 40 39 39 38 38 36 35 34 34 33 34 34 34 35 35 35 36 36 36 36 36 36 36 36 36 36 35 35 34 34 35 35 35 34 32 31 31 30 30 28 26 24 23 23 23 22 21 19 18 18 18 18 17 18 19 18 16 15 14 13 12 12 12 11 11 13 13 13 14 15 15 14 15 16 15
39 39 39 39 39 40 40 40 40 40 40 39 38 38 38 37 35 34 34 34 34 34 35 35 36 37 38 38 38 38 37 36 37 37 37 37 36 35 35 35 35 35 35 35 34 33 32 32 30 29 28 27 25 24 23 23 22 21 20 19 18 18 18 19 19 18 18 18 17 16 15 14 14 13 13 13 15 16 17 17 16 15 17 18 16
39 39 39 39 40 41 41 42 41 40 40 39 38 38 39 39 37 35 34 34 35 35 36 36 37 39 39 39 39 38 37 37 37 38 38 37 37 36 35 35 35 35 35 35 34 34 34 33 31 30 30 28 26 24 25 24 24 23 22 20 19 19 19 19 19 19 19 19 18 18 18 16 15 15 14 14 15 15 13 15 20 21 20 18 17
39 39 39 39 40 42 43 42 41 41 40 39 39 39 40 39 38 36 35 35 36 36 37 38 39 40 40 40 39 38 37 38 38 38 38 37 37 37 36 35 35 34 34 34 34 35 34 34 33 31 30 28 25 24 25 26 26 25 24 22 22 21 21 20 19 19 19 18 18 18 18 16 15 14 14 14 14 12 8 14 23 26 22 19 18
40 40 39 40 42 43 42 40 40 40 39 39 39 40 40 40 38 37 36 36 37 37 37 39 40 40 40 39 39 38 38 38 39 40 39 38 37 37 36 36 35 35 34 34 34 35 35 34 33 31 30 28 25 24 24 26 29 29 26 25 24 23 22 21 19 19 18 17 18 18 16 15 16 14 13 13 13 13 11 13 19 22 21 21 20
39 39 40 42 43 42 40 39 39 39 39 39 40 40 40 39 37 37 38 38 38 38 38 39 40 40 39 38 38 38 38 40 41 41 41 40 38 37 36 36 36 35 34 34 34 35 35 35 33 30 28 26 26 25 24 26 30 30 27 25 24 23 23 21 20 19 18 17 18 17 14 15 16 14 13 13 14 14 13 11 14 18 18 18 19
39 40 42 43 42 40 39 39 38 39 40 40 39 39 39 38 38 39 39 39 40 40 40 40 41 40 39 38 38 38 40 41 42 42 42 40 39 37 36 36 36 36 35 35 35 36 36 34 30 27 26 27 28 27 25 25 27 28 27 24 22 21 22 21 21 20 19 18 18 15 13 14 16 13 13 15 15 14 13 11 13 14 14 13 14
39 41 42 41 39 38 38 38 38 39 39 39 38 38 38 39 39 39 40 41 41 41 41 42 41 39 38 38 39 39 41 42 43 42 42 41 40 38 37 36 36 35 36 36 35 36 34 29 26 26 27 28 29 27 23 22 24 27 28 24 21 20 20 19 19 19 18 17 16 15 13 14 15 14 14 14 14 12 12 12 12 12 13 12 11
39 40 39 37 37 38 37 37 38 38 38 38 37 37 38 39 40 41 41 42 42 41 42 41 40 39 38 39 39 39 41 42 43 43 41 40 40 39 37 37 36 36 36 36 35 35 32 28 27 29 29 27 27 25 22 21 23 26 27 24 21 19 17 16 16 16 15 14 14 14 13 12 13 13 12 11 12 12 12 12 12 11 12 12 13
39 38 38 38 39 38 37 38 38 38 38 37 37 37 39 40 41 41 42 41 40 40 40 40 39 39 40 39 39 39 41 42 43 42 41 40 39 39 38 37 36 36 36 35 35 34 32 31 31 29 26 25 27 25 20 19 23 25 25 24 21 18 16 15 15 15 13 12 13 13 11 11 11 12 11 11 12 12 11 11 10 9 11 12 13
38 37 36 37 37 37 37 38 38 37 37 37 37 38 39 40 41 41 40 40 40 40 39 39 39 39 39 39 37 38 41 42 42 41 40 40 38 38 38 37 36 36 35 34 34 33 32 33 32 30 26 25 27 25 19 19 23 26 25 24 21 18 17 16 15 13 12 11 11 10 9 9 10 11 11 11 11 10 10 10 9 10 11 13 14
33 33 33 35 37 38 38 37 36 35 36 36 36 37 39 40 41 40 39 39 38 38 38 38 38 38 38 37 37 39 40 40 40 40 40 39 38 37 37 37 36 34 33 33 33 32 32 31 31 30 28 26 27 25 21 20 23 25 24 23 21 19 17 15 13 11 9 8 7 7 7 8 9 9 8 7 7 7 7 9 10 11 12 13 14
31 32 33 35 36 37 37 35 34 34 34 35 36 38 39 40 40 40 38 37 36 36 36 37 37 37 36 37 39 40 39 38 40 40 39 38 37 36 37 37 35 33 32 32 32 31 31 31 30 28 26 25 26 24 21 21 23 25 24 24 21 18 16 13 11 8 6 5 5 6 7 6 5 5 4 5 6 8 9 11 12 12 12 10 10
32 33 34 36 36 36 36 36 35 36 37 39 40 40 41 41 40 40 39 37 36 36 36 35 35 36 37 39 41 40 38 38 39 39 39 38 37 37 37 36 34 33 32 31 31 30 29 29 27 26 25 24 23 22 21 22 24 25 25 24 21 18 15 12 9 6 5 5 5 5 4 4 4 5 6 8 9 10 11 12 12 11 10 8 7
35 36 36 36 35 35 36 38 38 39 39 41 41 41 41 41 40 39 39 38 37 36 35 34 33 35 38 40 41 39 37 36 37 37 37 37 37 37 37 35 33 32 30 29 29 28 27 26 24 24 23 22 21 21 20 22 25 26 25 23 21 18 14 11 8 6 5 5 4 4 5 5 6 8 9 10 10 9 9 9 8 8 7 7 8
37 37 35 34 34 37 39 40 40 41 41 42 41 40 40 38 37 37 37 36 34 33 34 34 33 35 37 38 39 39 37 36 36 37 36 37 37 37 36 34 33 31 30 28 27 26 25 23 22 22 20 20 21 20 19 22 25 25 24 23 20 16 13 10 8 6 5 5 5 5 5 6 8 9 8 7 5 4 4 4 5 5 5 7 9
33 33 32 32 35 38 40 42 43 44 44 43 41 40 40 38 37 36 35 33 32 32 33 33 33 34 36 37 38 38 38 37 37 37 37 37 37 37 37 36 34 32 30 28 27 26 24 22 22 21 19 20 23 20 17 21 24 23 22 19 15 12 11 9 8 7 5 5 4 4 4 5 5 4 2 2 2 3 3 4 4 6 7 9 10
26 28 29 31 33 35 38 41 42 42 41 39 38 39 39 38 37 36 34 33 33 33 33 33 33 33 34 36 38 38 39 39 39 39 38 38 37 37 38 36 35 32 29 27 26 26 24 23 23 20 20 23 23 19 18 21 22 21 18 15 12 10 10 9 8 7 6 6 5 4 4 4 3 3 3 3 3 4 4 5 6 7 9 10 11
25 26 27 29 32 34 37 39 39 38 36 36 37 37 37 38 37 37 36 34 32 32 32 32 32 31 31 33 36 37 38 39 40 41 39 38 37 37 37 35 34 33 30 28 27 25 24 23 21 20 21 23 22 19 20 22 21 19 16 13 12 10 10 9 8 8 7 7 7 7 7 6 5 5 4 4 5 5 6 7 8 9 10 12 13
24 25 27 30 31 34 35 36 37 36 35 37 37 36 36 37 38 38 38 36 33 31 31 31 31 29 29 30 33 35 36 37 39 40 40 39 37 36 36 35 34 32 29 26 24 23 22 21 19 19 22 23 21 21 22 21 20 17 14 13 12 11 11 10 9 9 9 10 10 10 9 7 6 5 5 5 6 6 8 9 9 10 12 14 14
23 26 29 30 31 32 33 33 35 36 36 37 37 37 36 35 34 36 37 38 37 35 34 33 32 29 29 30 32 33 33 35 37 38 37 36 35 35 37 37 33 29 26 23 21 19 19 17 17 20 23 23 22 21 21 20 18 16 14 13 13 12 12 11 10 11 12 12 13 12 10 8 6 6 6 6 7 8 10 10 10 11 12 14 14
23 25 28 29 31 32 31 32 34 35 36 37 38 38 38 36 34 34 33 33 34 34 33 33 32 30 30 30 31 33 34 35 37 36 34 34 35 36 37 36 32 27 24 22 19 17 16 17 19 23 24 23 22 21 20 19 17 15 14 14 14 13 12 12 12 13 14 14 14 13 10 9 8 7 7 8 9 10 10 10 11 12 13 13 13
20 22 25 28 29 30 31 32 32 34 35 37 37 37 36 36 35 33 32 31 29 28 28 30 31 31 30 28 31 35 37 36 35 35 35 35 36 36 34 32 30 28 26 23 22 21 20 20 23 24 24 23 22 21 19 18 17 16 16 15 14 13 12 12 13 14 15 14 13 12 11 10 9 8 8 9 9 8 8 9 11 12 12 12 13
13 17 20 23 25 28 31 33 32 32 34 36 36 36 36 35 35 35 36 36 33 29 28 29 29 30 29 29 30 32 31 32 34 37 38 38 38 36 33 31 31 31 29 28 27 26 25 26 26 26 25 25 23 20 19 18 17 17 16 15 14 13 13 13 14 15 15 14 14 13 12 11 11 10 9 9 8 6 6 8 10 11 11 11 12
6 8 11 14 17 20 25 28 30 31 33 34 36 37 38 38 38 39 42 45 44 41 38 34 29 25 23 24 27 29 28 31 35 38 40 42 41 39 37 35 34 32 32 32 32 31 30 30 29 28 27 25 23 21 20 19 17 16 16 15 15 15 15 16 17 16 15 14 14 13 13 13 12 11 10 9 7 5 7 8 9 10 10 11 11
4 4 4 5 6 8 11 14 16 19 22 25 29 33 36 39 41 42 44 46 48 49 47 43 39 36 31 29 30 32 35 37 37 37 40 42 42 41 40 37 34 33 33 33 34 34 33 31 30 29 27 25 24 23 21 19 18 17 17 17 16 16 17 18 18 16 15 14 14 14 14 14 13 11 9 8 6 6 7 8 9 9 10 10 11
4 4 5 5 6 6 6 7 8 9 11 13 16 20 25 31 36 39 41 43 47 49 48 48 50 50 46 42 40 40 40 41 41 41 42 43 41 40 37 35 34 34 34 35 36 36 34 31 27 26 26 25 25 24 21 20 19 19 19 18 18 18 18 18 17 15 15 15 15 15 15 14 13 11 9 8 7 7 8 8 8 9 9 9 11
6 7 8 7 8 9 9 10 11 11 11 12 13 13 15 20 26 29 32 36 43 47 48 48 51 50 47 47 46 44 42 44 45 43 42 40 38 37 36 35 34 34 34 35 37 36 35 32 27 26 26 25 24 23 21 20 20 20 20 20 19 19 18 16 14 14 15 16 16 16 16 14 12 10 9 8 8 8 8 8 8 8 8 9 12
9 8 9 9 9 8 8 8 9 9 10 11 11 12 12 14 17 19 21 26 34 41 47 51 53 51 50 51 50 47 46 47 46 44 42 39 36 36 36 35 35 34 34 35 35 33 32 31 29 27 26 25 23 22 21 20 19 20 21 20 18 16 14 12 11 13 14 16 16 15 14 12 11 10 9 8 9 8 7 7 7 7 8 11 14
11 9 9 10 10 8 7 6 5 5 7 8 10 12 14 15 17 16 16 19 23 27 36 47 53 53 50 48 48 47 47 47 46 45 43 41 39 38 36 35 34 32 31 32 33 32 31 29 29 28 27 25 23 21 20 20 20 20 20 18 15 12 9 9 10 11 13 13 14 13 12 11 11 10 9 9 9 8 7 7 7 7 9 12 14
8 7 7 8 7 6 6 6 5 5 6 5 5 8 11 16 19 20 20 22 24 27 29 34 43 48 47 44 42 44 46 45 44 44 44 43 42 41 39 37 34 30 28 29 31 32 32 31 29 28 26 23 21 21 21 20 20 19 18 16 12 9 8 8 8 9 9 11 12 11 11 11 10 10 10 10 9 8 7 6 6 8 10 13 14
7 7 6 6 5 5 6 6 6 6 6 6 4 6 9 14 20 25 27 26 27 33 34 33 36 41 44 44 43 43 45 44 43 42 42 43 43 43 41 38 34 29 28 29 29 31 31 30 28 27 24 22 21 21 21 20 19 18 16 13 10 9 8 8 8 8 8 9 10 11 11 10 10 10 10 10 8 7 6 6 7 9 11 13 13
8 7 6 5 5 6 7 9 9 8 8 8 6 6 9 9 10 13 17 19 26 38 41 40 41 40 39 42 46 46 45 44 42 40 39 39 39 38 36 35 33 29 28 29 29 30 29 28 26 24 22 21 22 22 21 20 18 16 14 12 10 9 9 9 8 8 9 10 11 11 10 10 10 11 10 9 7 6 7 7 8 10 12 13 13
8 7 6 5 6 8 9 10 10 9 10 12 12 11 13 16 17 16 7 7 20 35 38 35 40 43 38 38 46 50 48 44 41 38 36 36 33 29 28 29 30 30 29 29 30 30 28 26 23 21 20 21 22 22 21 20 18 16 14 13 12 11 10 10 10 10 10 10 10 10 9 10 11 11 11 9 8 7 8 9 10 11 12 13 13
9 8 6 4 5 8 10 10 10 9 10 12 14 15 16 18 22 27 20 9 4 24 35 31 33 39 39 39 44 48 47 43 40 37 35 32 28 25 25 26 27 28 28 29 29 28 26 24 22 21 21 22 22 23 22 20 18 17 16 15 15 14 13 13 12 12 12 11 10 10 10 11 12 12 11 10 10 10 10 11 12 12 13 14 14
9 8 6 5 5 8 10 10 9 7 7 10 14 17 18 16 15 22 23 13 12 20 31 30 29 34 39 41 44 45 44 41 39 36 34 31 26 26 27 28 27 27 27 27 27 27 25 24 23 22 22 22 23 24 22 20 19 18 17 17 17 16 15 14 13 12 12 12 12 11 11 12 13 13 13 13 13 13 12 12 12 13 13 14 14
7 7 7 6 6 6 9 11 10 8 8 12 16 17 17 16 13 16 21 19 16 21 26 27 26 29 32 36 41 43 42 40 38 37 36 33 30 29 29 28 27 27 27 27 26 26 24 24 24 23 23 24 25 24 22 20 19 19 19 18 18 16 15 14 14 13 14 13 13 13 13 13 14 16 16 16 16 15 14 13 13 13 14 13 13
7 7 7 7 7 7 8 9 10 11 11 13 14 15 16 16 16 15 16 18 20 24 26 27 27 28 29 30 33 36 36 36 37 38 37 34 32 30 29 27 26 26 25 23 23 23 24 25 25 24 25 26 26 25 23 21 20 20 20 20 19 17 16 15 15 15 15 15 14 14 13 14 16 17 18 18 17 16 15 14 13 14 14 13 11
7 7 7 7 7 7 7 7 8 10 12 12 12 11 12 13 14 15 16 16 17 20 22 23 25 28 28 28 28 30 32 34 36 37 36 33 31 29 28 26 25 22 19 17 17 19 21 23 24 26 27 28 26 24 22 21 21 21 21 21 19 18 16 15 16 16 16 15 15 14 14 15 17 18 18 18 18 17 15 14 14 14 13 12 11
7 7 7 7 7 7 7 6 6 7 9 10 11 10 10 10 10 12 14 14 14 16 19 21 23 25 26 25 25 27 29 31 32 33 32 31 29 27 26 25 22 19 16 15 14 16 18 20 24 27 27 26 24 22 20 20 21 21 21 20 19 17 16 16 16 17 16 16 15 15 16 17 18 19 19 19 18 16 14 14 14 14 13 12 10
6 6 6 7 9 8 7 5 5 5 6 8 9 10 9 9 9 9 11 13 15 17 19 21 24 25 25 23 23 25 27 28 29 29 28 28 26 25 24 22 19 17 16 14 14 15 17 19 23 26 27 25 23 21 20 20 20 20 18 17 16 15 14 15 15 15 15 15 15 16 17 18 18 19 19 18 17 15 14 14 14 14 13 11 9
6 6 6 7 9 9 7 4 3 4 5 7 8 8 8 8 8 8 9 11 14 17 19 21 24 25 24 22 22 23 24 24 23 23 23 23 23 21 20 19 17 16 16 15 15 16 17 18 20 23 24 24 22 21 21 21 20 18 16 14 13 12 11 12 13 13 14 15 16 17 18 18 18 18 18 16 15 14 14 15 16 14 13 11 8
7 7 8 8 9 8 7 5 4 4 5 5 6 7 7 7 7 7 7 8 11 14 17 19 22 24 24 22 21 21 20 20 19 19 19 19 18 17 18 18 17 17 17 16 16 17 17 17 19 20 20 21 21 21 22 21 20 18 15 13 13 12 12 12 13 14 15 16 17 17 17 17 16 16 15 14 14 15 16 16 16 14 12 10 7
9 8 7 7 6 6 6 5 5 5 5 5 5 6 7 8 8 8 8 9 10 12 15 18 20 21 21 20 19 19 19 18 17 16 16 16 16 17 18 18 19 19 19 18 18 16 15 15 16 18 19 19 19 21 22 22 20 18 16 15 15 15 14 14 13 14 14 15 15 14 13 13 13 13 13 14 15 17 17 17 16 14 11 9 7
11 9 7 6 5 5 6 8 8 7 6 5 5 5 7 9 10 10 10 11 11 12 15 17 18 19 19 18 18 18 17 17 16 15 16 16 17 17 18 19 19 19 20 19 18 16 15 14 15 16 17 18 19 21 23 22 19 18 18 17 16 15 13 12 11 12 12 12 12 11 11 10 10 11 12 14 15 17 17 17 15 13 11 9 7
13 12 10 9 9 8 9 10 10 9 6 5 4 4 5 9 10 10 10 12 14 15 16 18 18 18 19 20 19 18 17 17 17 17 18 18 18 18 19 19 19 19 18 18 17 16 16 16 16 17 18 18 20 22 22 20 18 19 18 17 14 12 10 8 9 10 10 11 10 10 9 9 9 11 12 14 15 17 17 17 15 13 10 8 7
15 14 13 11 10 9 10 12 12 10 7 5 5 6 7 6 6 7 8 10 13 15 16 17 18 18 19 20 20 18 17 16 17 18 20 20 20 20 20 19 19 18 17 16 16 15 16 17 18 18 19 19 20 21 20 18 18 18 17 15 13 11 8 6 7 9 10 10 10 10 9 10 11 12 13 15 16 17 17 16 14 12 10 8 6
Wind_Direction
212 213 213 212 212 212 213 213 213 214 214 215 216 217 219 220 221 222 221 222 224 224 226 228 230 230 229 229 230 231 231 231 230 230 231 233 234 236 237 238 240 241 243 244 243 243 244 244 245 245 244 242 240 239 237 236 236 235 237 238 235 233 234 232 235 254 269 272 270 258 245 249 258 261 268 272 270 265 263 266 273 281 286 290 293
211 212 212 212 213 212 212 212 213 213 213 214 215 217 219 220 220 220 220 221 223 223 225 226 228 228 228 229 230 231 231 231 230 230 230 233 235 236 237 238 239 241 242 244 244 243 242 243 244 245 244 244 242 240 237 234 233 234 235 233 232 232 233 234 235 239 247 257 263 257 248 252 258 261 271 280 277 268 265 269 278 285 290 292 292
211 211 211 212 213 212 212 211 211 212 212 213 214 216 218 219 219 219 218 219 221 223 225 225 226 227 227 229 230 230 230 230 230 231 232 233 234 236 237 237 239 240 241 244 244 242 241 241 243 242 242 244 244 243 239 236 236 237 234 230 230 233 234 235 236 235 240 250 256 253 250 252 258 265 277 282 281 278 276 281 287 289 293 295 292
210 209 210 212 212 211 211 211 211 211 211 213 214 215 217 218 218 218 217 218 219 221 224 224 225 225 226 228 228 228 228 228 229 231 233 234 235 236 238 238 239 240 241 243 244 242 240 241 242 241 240 241 244 244 241 238 238 236 233 231 233 234 233 236 239 240 244 249 250 251 253 255 260 267 278 283 285 285 286 290 291 291 296 300 295
208 208 209 210 210 211 211 210 210 211 211 212 213 214 215 217 218 217 216 217 218 220 221 221 222 224 225 227 227 227 227 227 228 230 233 234 236 237 238 239 240 240 242 243 244 243 243 243 243 240 238 239 241 242 242 241 241 238 236 237 237 236 236 239 242 244 245 248 253 259 262 263 265 269 277 284 290 291 291 291 290 294 304 309 303
207 207 208 208 209 211 210 210 210 210 210 211 212 213 214 216 217 217 216 216 217 219 220 220 221 223 225 227 227 226 226 226 228 230 232 233 235 236 237 238 240 241 241 242 243 244 245 245 244 239 237 238 239 242 242 242 242 240 238 238 238 238 240 242 242 244 247 251 257 263 267 268 269 272 277 282 288 290 291 292 295 303 312 313 306
205 206 207 207 209 210 210 210 210 210 210 210 211 211 213 214 215 215 215 216 217 219 220 221 222 224 225 226 226 226 225 225 227 228 230 231 233 234 235 236 238 240 241 242 243 245 246 246 244 240 238 236 238 245 247 245 244 242 239 238 238 240 242 243 242 243 247 251 255 261 266 267 269 274 279 284 286 285 295 312 310 308 310 307 299
204 205 206 207 209 211 211 211 210 210 210 210 210 210 211 213 214 213 214 215 216 218 220 222 223 225 225 225 225 224 223 224 226 226 227 228 230 231 233 234 235 237 240 242 243 245 246 246 244 242 240 236 236 244 250 250 245 240 238 238 239 242 243 241 241 242 245 249 253 259 263 265 270 277 281 286 283 277 298 313 301 297 302 302 295
203 204 205 207 210 211 210 210 209 209 209 209 209 209 210 212 211 211 212 213 216 218 220 222 223 223 224 223 223 222 221 223 226 226 226 226 227 229 231 232 233 235 237 240 243 244 246 246 244 242 241 236 233 239 250 255 249 241 238 237 238 241 241 239 239 240 242 246 251 256 259 264 273 280 282 287 286 285 299 298 284 287 298 300 294
202 203 205 208 210 210 209 208 208 207 208 208 208 208 209 210 209 210 212 213 215 217 218 221 222 222 222 221 221 220 221 224 227 228 228 227 226 227 229 231 232 233 235 237 240 243 245 245 244 243 240 235 235 239 245 252 250 245 243 240 238 237 234 233 236 238 239 242 247 252 254 264 275 279 281 290 295 297 301 291 278 286 296 297 295
201 203 207 209 209 208 207 206 206 206 207 207 207 207 207 207 208 210 211 212 214 215 217 219 220 221 221 220 220 219 221 225 228 229 229 228 227 226 228 230 230 231 233 235 237 241 244 244 242 242 239 236 239 242 242 247 249 246 245 242 240 238 233 231 234 235 235 239 246 251 251 262 275 279 282 291 296 296 294 287 282 286 289 290 293
202 205 208 208 207 206 206 205 205 206 206 206 205 206 206 207 208 209 210 212 213 214 215 218 219 219 219 220 220 220 222 226 228 228 229 228 228 227 228 229 229 230 232 234 235 239 241 240 238 243 244 240 239 240 241 248 249 246 245 241 238 238 238 239 240 237 238 243 248 251 252 260 273 280 283 288 288 286 286 286 286 286 285 285 284
203 206 207 206 206 206 204 203 204 205 205 205 204 204 204 206 208 209 210 212 213 213 214 216 217 218 218 219 220 221 224 227 228 228 228 228 228 228 228 228 229 230 232 233 234 236 236 234 236 243 244 239 236 236 241 248 246 242 241 237 234 237 237 238 241 242 246 249 248 252 258 263 272 280 283 281 278 280 283 284 286 287 286 284 282
203 206 205 204 205 204 203 203 204 205 204 203 203 203 204 207 208 210 212 212 212 212 214 215 215 216 218 219 219 221 225 227 228 227 227 228 229 228 227 228 229 231 232 233 233 234 232 232 236 240 242 239 235 232 238 244 240 236 234 231 230 229 225 226 232 238 245 248 251 260 266 267 271 279 280 274 272 277 279 280 284 286 284 283 284
203 204 204 204 204 202 202 203 203 203 202 202 202 203 205 208 209 211 212 212 212 213 213 214 215 216 217 218 219 222 225 227 227 227 227 228 229 228 227 226 228 230 232 233 234 234 232 232 235 237 242 243 235 229 233 239 235 232 230 226 222 217 217 223 228 234 243 249 254 261 264 268 275 280 279 274 271 273 273 274 280 283 285 286 286
203 203 203 203 203 202 202 202 201 201 201 201 202 204 206 209 210 211 212 214 214 214 214 215 215 215 216 216 218 222 225 226 226 226 227 228 228 227 225 225 227 228 229 232 234 235 234 233 231 232 236 238 232 228 234 236 230 228 223 215 211 210 214 221 226 233 240 241 246 259 269 278 283 279 275 272 270 275 275 272 276 280 281 282 282
203 204 204 204 203 203 201 199 199 199 200 201 203 206 208 210 211 211 212 213 214 214 214 215 216 215 215 216 218 222 225 225 226 226 227 227 225 224 223 223 224 225 228 231 233 233 234 235 232 228 229 231 228 227 232 232 226 221 213 204 202 206 209 215 222 227 231 237 255 274 279 276 267 259 262 266 273 282 277 273 279 279 274 272 276
204 204 206 205 204 202 200 199 199 199 200 202 204 206 209 210 211 211 212 212 213 214 214 215 216 215 215 217 219 221 223 224 225 225 226 225 224 223 223 222 221 223 226 228 231 233 233 234 232 227 226 228 227 224 225 225 219 213 205 199 198 200 202 206 210 210 220 244 261 264 253 246 243 252 270 276 278 279 274 275 282 281 272 268 272
204 205 206 205 203 201 200 200 201 201 202 205 206 207 208 210 211 212 212 213 213 214 214 214 215 215 216 219 220 221 222 224 224 224 224 225 224 223 221 219 218 221 222 223 228 230 230 229 228 227 227 225 220 218 220 218 214 210 205 199 197 197 199 201 204 208 219 229 232 226 225 239 256 268 278 281 279 277 274 274 276 273 271 274 281
205 206 205 203 201 200 201 202 203 203 205 206 207 208 209 210 211 212 213 213 213 213 213 213 214 215 216 218 220 221 221 222 223 223 224 224 223 221 219 216 216 218 219 219 221 221 222 223 222 223 225 218 212 216 220 216 212 208 205 202 199 197 197 199 202 209 218 216 212 221 235 255 271 278 282 280 272 264 257 248 250 263 277 285 287
207 206 204 202 202 202 202 203 205 206 208 207 205 207 208 209 210 210 211 213 212 212 211 212 213 215 216 217 219 220 220 220 221 223 223 224 223 220 217 216 218 218 215 214 214 214 214 214 214 215 213 209 212 220 220 210 207 206 204 204 203 197 195 198 201 204 212 212 209 223 246 261 270 271 260 219 197 202 212 227 259 279 285 287 286
209 207 205 203 204 204 205 207 208 209 210 207 205 206 207 207 208 209 209 210 210 211 210 210 211 214 215 216 217 219 219 219 220 222 223 222 222 219 217 219 220 216 210 206 208 212 213 212 211 207 202 205 214 218 206 198 200 203 201 198 197 197 195 197 203 206 203 198 198 207 213 209 199 180 169 179 197 219 239 256 274 282 285 288 287
210 208 206 206 207 208 209 210 210 211 210 208 207 207 205 204 205 206 206 207 208 209 209 209 209 210 212 213 215 216 216 216 219 222 222 221 220 218 217 219 218 212 206 204 207 209 211 212 209 203 201 206 208 200 190 191 194 196 194 193 194 197 196 198 203 203 194 190 192 192 185 176 171 173 186 208 228 248 264 274 282 284 286 292 292
209 208 209 209 210 211 211 212 212 212 211 208 208 209 207 205 204 203 202 201 203 206 207 207 207 206 206 207 209 211 211 212 217 220 220 218 217 214 212 212 212 208 204 204 207 208 208 210 207 201 198 197 193 188 187 189 191 191 192 194 195 196 198 200 197 189 187 190 190 186 183 181 183 192 210 231 251 269 284 291 291 287 290 295 295
207 208 210 212 213 213 214 214 214 213 211 209 208 209 208 207 206 204 202 199 199 200 201 203 202 201 200 200 200 201 204 207 212 216 217 216 212 207 205 206 205 201 197 197 201 205 206 205 200 193 189 187 186 186 185 185 187 190 192 194 197 199 199 195 189 187 191 192 190 187 186 191 203 220 238 256 272 285 295 298 293 291 294 296 294
209 210 211 213 214 213 213 214 215 215 214 211 211 211 209 207 206 207 206 205 204 201 198 196 195 197 199 197 193 192 196 203 207 209 208 208 206 201 199 199 196 191 187 187 188 191 193 193 187 182 182 182 182 180 179 180 186 190 193 196 199 200 196 192 191 195 194 191 191 191 193 202 220 235 250 269 283 292 296 295 295 298 300 297 295
217 215 214 215 215 213 213 214 215 215 214 213 214 214 212 209 207 206 205 206 208 207 201 195 193 194 194 192 189 189 191 195 199 199 198 198 197 193 190 189 186 180 175 174 174 174 176 177 176 174 174 174 175 176 179 184 188 191 194 198 199 196 195 197 201 202 197 193 194 198 203 217 232 244 259 276 288 293 291 290 295 300 301 300 301
230 228 225 223 219 215 215 215 215 214 215 215 215 215 213 211 209 208 206 204 202 202 202 202 201 197 192 187 183 181 182 187 191 193 192 189 184 180 178 179 178 173 167 165 164 164 166 167 166 167 168 168 171 177 183 187 190 194 195 196 195 193 195 200 204 204 201 199 203 209 217 229 242 253 267 278 283 285 286 289 293 296 298 301 302
265 253 246 241 233 227 224 222 220 218 217 216 217 217 215 212 211 212 212 209 205 203 201 200 199 193 186 180 171 163 168 184 192 190 188 185 180 176 175 176 175 170 166 162 158 157 159 160 160 162 165 168 172 178 183 186 190 194 194 193 194 196 200 204 206 206 206 208 214 222 230 239 249 258 266 270 271 277 287 291 292 292 295 296 295
313 296 292 284 270 259 253 247 243 239 234 229 225 222 219 216 215 215 215 213 210 208 204 198 191 183 176 177 181 184 188 191 190 186 183 182 180 176 175 175 173 169 165 161 156 155 156 156 158 161 165 170 175 178 183 188 190 191 192 194 199 203 205 207 209 211 213 218 226 234 240 246 254 258 255 253 260 276 286 288 289 291 292 290 290
3 0 0 359 356 349 339 329 318 301 286 276 261 244 231 224 220 219 219 215 210 207 204 198 191 184 180 182 190 198 198 190 183 181 180 178 176 173 172 172 171 168 165 159 154 153 155 156 159 164 169 173 177 181 184 189 192 193 194 197 203 209 210 212 214 217 223 229 234 239 245 249 253 249 240 241 257 275 279 280 284 286 283 283 291
27 27 20 14 8 5 4 2 358 350 340 329 316 293 265 242 230 226 223 218 211 205 200 194 188 185 187 191 191 189 186 180 176 175 174 173 171 169 168 169 169 167 164 159 153 154 159 160 161 166 170 173 178 183 187 192 196 197 198 201 207 212 216 219 223 229 235 239 241 244 247 249 245 234 228 240 260 269 272 275 277 275 275 286 295
24 24 23 21 19 18 15 9 3 358 349 338 327 314 292 266 248 233 216 207 206 202 196 190 186 185 190 194 191 183 178 175 172 169 168 168 167 165 165 167 167 165 164 159 153 155 162 164 164 168 172 174 179 185 192 198 200 200 202 207 211 214 218 225 233 239 242 244 247 248 245 239 226 218 227 248 260 262 265 268 267 268 278 292 297
15 15 13 12 14 21 24 20 16 1 343 330 317 302 284 269 261 246 212 186 182 187 188 188 186 184 183 184 182 177 173 171 167 165 163 162 161 162 162 162 163 166 166 162 157 157 163 166 168 171 173 176 182 190 196 200 201 201 205 210 214 217 224 232 239 243 243 241 240 237 226 214 209 219 239 250 250 252 260 262 261 272 286 294 295
10 15 12 7 10 23 31 35 38 27 14 6 345 316 291 271 258 242 223 202 183 173 171 173 174 172 171 172 173 169 165 163 162 160 158 157 157 158 157 156 160 165 166 164 163 165 168 170 171 172 174 179 186 195 199 199 199 201 204 208 211 214 220 229 237 241 235 226 220 212 202 202 215 233 245 245 242 251 260 256 259 277 289 290 290
32 32 31 28 33 40 43 48 50 48 54 61 40 3 334 295 261 238 228 217 189 161 148 144 149 156 160 161 160 158 154 155 157 156 155 156 157 157 157 158 161 165 164 165 168 170 172 174 174 174 178 185 192 198 199 197 196 199 201 202 201 201 206 215 221 220 210 201 197 196 197 210 230 242 245 244 247 252 252 249 261 278 284 284 286
45 45 47 52 58 57 58 63 64 63 67 62 37 17 14 344 289 247 230 209 166 139 130 131 133 136 142 147 149 149 148 149 152 152 153 156 159 161 162 164 164 164 163 165 169 170 172 176 178 179 184 192 196 197 196 193 194 196 194 190 190 194 200 205 205 202 196 189 191 199 210 228 245 251 250 249 247 240 238 246 264 275 278 278 283
62 59 53 58 72 74 72 72 74 74 73 68 56 46 44 44 50 57 50 207 158 128 117 121 125 124 126 136 143 144 143 143 145 147 151 157 164 169 171 169 166 165 166 169 173 174 175 179 183 187 191 196 196 194 191 190 191 190 185 184 188 192 194 193 190 190 192 193 199 212 228 244 252 253 250 242 233 229 236 248 262 269 272 275 280
77 70 62 71 96 95 86 80 81 82 82 81 79 72 61 55 63 70 59 8 61 105 104 106 113 119 125 134 138 138 138 140 143 147 153 162 173 179 179 173 169 170 171 174 177 179 181 184 188 192 196 197 195 191 189 188 187 186 185 187 190 190 189 189 188 190 195 203 213 226 239 247 248 246 242 235 228 229 238 248 258 265 270 275 280
78 77 80 84 91 96 92 88 86 86 88 92 93 91 86 76 78 90 90 62 38 79 97 104 114 125 134 141 142 140 137 138 143 151 160 170 179 185 183 179 177 177 177 179 182 185 187 189 191 194 196 195 191 188 187 187 186 187 189 192 193 193 192 192 194 198 204 213 223 231 238 242 242 240 238 234 230 233 240 247 254 263 270 276 281
69 72 81 80 77 79 81 80 80 78 82 92 96 98 101 103 101 107 113 112 99 94 101 109 122 134 142 146 146 143 141 141 148 159 169 177 182 185 185 184 184 184 184 184 187 190 192 193 195 196 194 191 188 187 187 188 188 191 194 195 196 196 195 195 199 205 210 217 224 229 234 240 241 241 241 237 233 233 238 245 253 263 270 274 278
68 71 73 71 71 71 66 66 75 79 79 87 96 102 107 112 113 110 110 113 114 115 117 122 130 137 140 141 142 142 143 148 157 167 175 180 182 183 184 187 189 189 190 189 191 194 196 196 196 194 190 187 186 187 188 190 193 196 197 197 196 197 197 199 204 207 211 218 224 228 233 240 242 243 244 241 234 232 236 244 254 263 267 269 274
74 75 71 65 69 79 78 70 72 78 77 80 90 98 102 104 107 107 103 101 106 113 118 122 128 133 135 138 143 148 150 156 165 172 177 179 181 181 184 187 189 190 190 190 192 196 198 196 194 191 188 186 187 188 191 194 197 198 199 198 198 199 201 204 206 209 215 221 225 229 234 239 243 246 245 238 231 229 234 245 256 262 263 265 271
78 81 83 85 85 89 95 92 82 80 85 88 89 89 86 82 85 93 100 101 104 110 116 123 130 135 136 141 149 155 158 162 169 173 175 178 180 182 184 186 185 183 181 182 184 188 190 191 189 188 187 187 189 192 196 199 201 201 200 200 200 202 205 208 212 215 220 225 228 232 236 240 245 248 243 232 226 228 235 247 258 262 261 263 268
80 87 91 95 93 88 87 98 112 120 118 111 103 98 95 92 90 94 103 110 118 125 131 137 141 144 146 150 156 160 163 166 170 173 177 179 182 184 185 185 181 177 175 176 179 181 184 187 187 187 188 190 193 197 201 203 203 203 202 202 204 208 213 218 222 225 227 231 235 239 241 244 247 245 236 227 226 232 242 253 261 261 258 257 262
67 77 78 81 86 87 85 95 132 144 135 124 119 115 112 110 110 112 117 123 128 133 139 145 150 152 152 154 158 161 165 168 170 174 178 181 183 185 185 183 179 177 177 179 180 182 183 184 186 188 191 194 197 200 203 203 202 201 201 204 211 217 222 226 228 229 231 235 240 243 246 248 245 237 229 228 233 241 251 258 260 257 252 250 254
44 53 60 60 65 77 90 107 137 149 143 135 134 135 134 131 130 133 134 132 131 134 141 148 155 158 159 161 163 165 168 171 174 176 179 182 183 184 183 182 181 180 180 180 181 182 183 186 189 190 192 194 196 198 199 198 197 197 200 204 209 213 217 219 223 230 236 241 245 248 248 244 236 227 227 236 245 251 256 258 255 251 245 242 251
39 39 42 43 45 51 59 71 91 110 121 128 137 149 154 152 150 155 158 154 149 150 154 158 163 166 167 167 168 169 171 172 173 174 175 178 179 181 183 184 183 182 181 180 179 179 182 186 189 191 192 195 197 197 195 194 194 197 200 203 205 208 212 217 226 236 241 242 242 242 236 229 225 228 239 250 255 257 257 254 247 241 235 236 252
41 43 48 57 63 60 50 51 60 70 86 116 142 157 157 154 157 169 179 178 174 172 172 171 171 172 172 172 171 171 170 170 169 170 171 172 174 176 180 183 184 185 187 187 187 188 188 188 190 193 196 198 200 197 194 193 194 198 200 201 202 205 213 223 233 239 236 230 226 222 218 222 233 246 255 260 260 257 253 247 238 232 230 236 250
37 40 45 50 57 64 67 66 62 56 64 99 128 126 128 144 159 174 182 181 180 181 181 179 177 177 177 176 174 172 172 172 171 170 169 169 170 171 174 178 182 186 190 193 197 201 201 198 198 199 199 198 198 195 193 193 197 199 198 197 199 204 214 226 230 226 218 211 209 212 219 233 249 261 267 267 260 251 246 240 232 228 230 234 238
39 38 37 36 37 48 65 74 74 67 61 71 78 67 70 98 137 157 165 175 182 184 182 178 175 175 177 178 176 173 173 175 174 170 167 167 169 170 172 175 178 181 185 190 194 196 197 196 197 197 196 196 197 196 194 197 202 200 196 194 198 202 208 215 217 213 208 206 210 219 230 242 255 267 274 271 259 249 243 236 229 227 230 228 222
Height
739 742 745 748 752 755 758 761 764 768 770 773 775 777 779 781 784 787 789 792 794 796 799 801 803 806 808 810 811 813 814 816 818 819 820 822 823 824 825 827 827 828 830 831 832 833 835 836 837 838 840 841 842 843 844 845 846 846 847 848 849 850 851 852 852 852 852 852 853 853 853 853 853 853 853 853 853 853 852 852 852 852 852 852 852
734 737 741 745 747 750 754 757 761 764 766 769 771 773 776 778 781 784 786 789 791 793 795 797 800 802 805 806 808 809 811 812 815 816 817 819 820 821 822 824 825 826 827 828 829 831 832 833 834 836 838 838 839 841 842 842 843 844 845 846 847 847 848 849 849 849 849 850 851 851 852 852 852 852 852 852 852 851 851 851 851 851 850 850 850
729 733 737 740 743 747 750 753 756 759 762 764 766 769 772 775 778 781 783 786 788 790 792 794 796 799 801 803 804 805 807 809 811 813 814 815 817 818 819 820 822 823 824 825 826 828 829 831 832 834 835 836 837 838 839 840 841 842 842 843 844 845 845 846 846 847 847 848 849 849 850 850 850 850 850 850 850 850 850 850 850 849 849 848 848
726 730 733 735 739 743 746 749 752 754 757 760 763 766 769 773 775 777 780 783 785 787 789 791 793 795 797 799 800 801 803 805 807 809 810 812 813 815 816 817 819 820 821 822 824 825 827 828 829 831 833 834 835 836 837 838 839 839 840 841 842 843 843 844 845 846 846 846 847 847 848 848 848 848 848 848 848 848 848 848 848 848 847 847 846
722 725 728 732 736 739 741 745 747 749 753 756 759 763 767 769 772 775 777 780 782 784 786 788 790 791 792 794 795 797 799 801 803 805 806 808 810 811 813 814 815 817 818 820 821 823 824 825 826 829 830 831 832 833 835 836 837 838 839 840 840 841 841 842 843 844 844 844 845 845 846 846 846 846 847 847 847 847 847 846 846 846 845 845 844
717 721 724 727 730 733 736 739 741 744 748 752 756 759 763 766 768 771 774 776 779 781 782 784 785 786 787 789 791 792 794 797 798 800 802 804 806 808 810 811 812 813 815 817 818 819 820 822 824 825 827 828 830 832 833 834 835 836 837 838 839 839 840 840 841 842 842 842 843 843 843 844 844 844 845 846 846 845 845 845 844 845 844 843 842
712 716 719 722 724 727 729 732 736 740 744 747 751 754 757 761 763 766 770 772 775 777 778 780 781 781 782 784 786 788 790 792 794 796 798 800 802 804 806 807 809 810 812 813 815 816 817 819 820 822 824 826 829 832 832 833 833 834 835 836 837 837 838 838 838 839 840 840 841 841 841 842 842 842 843 844 844 844 844 844 843 843 843 842 841
707 710 714 716 718 720 723 727 731 735 739 743 746 749 752 755 758 761 765 767 769 772 773 775 776 777 778 779 781 783 785 787 789 791 794 796 798 800 802 804 805 807 809 810 811 813 814 815 816 818 821 824 827 829 830 831 831 832 833 834 834 835 835 836 837 837 838 838 839 839 839 840 840 841 841 842 842 842 843 845 843 841 841 840 839
701 704 708 710 711 714 719 723 727 731 735 738 741 744 747 750 754 757 759 761 764 766 768 770 771 772 773 775 777 779 781 782 784 786 789 791 793 795 797 800 801 803 805 806 808 809 810 811 813 815 818 821 823 824 826 827 828 828 829 830 831 832 833 834 835 836 836 837 837 837 838 838 838 839 839 840 840 840 841 842 841 839 839 838 837
695 699 701 702 705 710 714 719 723 726 730 733 736 739 743 746 749 752 754 756 758 760 762 764 765 767 768 770 772 774 776 777 779 781 783 786 788 791 793 795 797 799 801 802 804 805 806 808 810 812 815 817 818 819 821 823 824 826 826 827 829 830 831 832 833 834 835 835 835 836 836 836 836 837 838 838 839 839 839 839 839 838 838 836 834
689 693 694 696 701 706 710 714 718 721 724 728 731 735 739 742 744 746 748 750 751 753 756 758 759 761 764 766 767 769 770 772 774 776 778 781 784 786 788 790 792 794 796 798 799 800 802 805 808 811 813 814 814 815 818 820 821 823 825 825 827 827 828 830 831 832 833 833 833 834 834 834 834 835 836 836 837 837 837 837 837 836 836 835 833
684 686 687 692 698 702 705 710 713 716 719 723 727 731 734 737 738 740 742 743 745 747 749 751 753 757 760 761 763 764 765 767 769 771 774 776 780 782 784 786 788 790 792 793 795 797 800 804 807 810 811 811 810 813 815 817 818 821 823 823 825 825 826 828 829 830 831 831 832 832 833 833 833 834 834 835 835 835 835 835 835 834 834 834 833
679 681 684 690 694 697 701 705 708 711 715 719 723 726 729 731 732 734 735 737 739 741 742 745 749 752 754 756 758 759 761 763 764 766 769 772 775 778 780 782 783 785 787 789 791 794 798 801 802 804 806 808 809 811 813 814 815 817 820 821 823 824 825 826 827 828 829 830 830 831 831 832 832 832 833 833 833 833 833 832 832 832 832 832 831
673 676 680 684 687 692 696 699 702 706 710 715 719 721 724 725 727 729 730 732 734 736 738 741 744 746 749 751 753 755 757 758 759 762 765 768 771 773 775 778 779 781 783 785 788 791 794 796 796 800 804 806 806 808 810 811 813 815 817 819 820 821 823 824 825 826 827 828 828 829 829 830 830 830 831 831 831 831 831 831 830 830 830 830 830
667 671 675 679 683 687 691 694 698 702 706 710 714 716 718 720 722 724 726 727 729 731 734 737 739 741 744 747 750 751 752 753 755 758 761 764 767 770 772 774 776 778 780 782 784 787 789 791 793 796 801 802 803 805 807 808 810 812 814 816 818 819 820 822 823 824 825 826 827 827 828 828 828 828 829 829 829 829 829 829 829 829 829 828 828
664 669 672 675 679 682 685 689 694 698 702 706 709 711 713 714 716 719 721 723 725 727 730 732 734 737 740 743 745 746 747 749 751 754 757 760 763 766 769 771 773 775 776 778 780 782 784 786 788 791 795 797 799 801 803 805 807 809 811 813 815 817 818 820 821 822 824 824 825 825 826 826 826 826 827 827 828 828 828 828 828 828 827 827 827
662 665 668 671 674 678 682 687 691 695 699 702 703 705 707 709 712 715 717 719 721 724 726 728 731 734 737 739 740 741 742 745 747 750 753 757 760 763 765 767 769 771 773 774 776 778 780 782 784 787 789 792 794 797 800 802 804 806 808 810 812 814 816 818 819 821 822 822 823 824 824 824 825 825 826 826 826 827 827 826 826 826 826 826 825
657 661 663 667 671 675 679 683 686 690 692 694 696 698 701 704 706 709 712 714 716 719 722 725 727 730 732 733 734 736 738 741 743 747 750 754 757 759 761 763 765 767 769 771 773 775 776 778 781 783 786 788 791 794 797 799 801 803 806 808 810 812 814 815 817 819 820 821 821 822 823 823 824 824 825 825 825 825 825 825 825 825 825 825 825
651 654 658 662 667 672 676 678 680 683 685 686 689 692 695 698 701 705 707 709 712 715 718 721 723 725 727 728 730 733 735 737 740 743 747 750 753 755 757 759 761 763 766 768 770 771 774 776 778 781 783 786 789 791 794 796 799 801 804 806 808 810 811 813 815 817 818 819 820 821 821 822 822 823 823 823 823 823 823 823 824 824 824 824 824
645 649 654 660 664 667 670 672 675 676 678 680 684 688 691 695 698 701 704 706 709 711 714 716 718 720 722 724 727 729 731 733 736 739 743 746 748 751 753 755 757 759 762 765 767 769 771 773 776 778 781 784 787 789 791 794 796 799 802 804 806 807 809 811 813 815 816 817 818 819 820 820 821 821 821 821 821 821 822 822 822 823 823 823 823
645 649 653 656 659 661 664 666 668 669 671 674 678 682 686 690 693 696 700 703 706 707 709 711 714 715 717 720 722 724 726 729 731 735 738 741 744 747 749 750 753 756 758 761 763 765 768 770 773 776 779 782 785 787 789 792 794 798 801 803 805 806 807 809 811 813 814 815 816 818 818 819 819 819 819 820 820 820 821 821 821 821 822 822 822
646 649 651 653 656 659 661 662 663 665 668 671 674 676 679 683 688 691 695 698 701 703 704 706 708 710 712 714 716 718 721 723 726 729 732 735 738 741 744 746 749 752 754 757 760 762 765 767 770 774 777 780 782 785 787 790 793 797 800 802 803 804 806 808 810 811 812 814 815 816 817 817 817 818 818 819 819 819 820 820 820 820 820 821 821
644 647 649 651 653 655 657 659 661 664 667 669 671 672 674 677 680 684 688 692 695 698 700 701 703 705 707 709 711 713 716 718 721 724 727 730 733 736 739 742 745 747 750 753 756 759 763 765 768 772 775 777 780 783 786 789 792 796 798 800 801 803 805 807 808 809 810 812 813 814 815 815 816 816 817 818 818 818 818 818 818 819 819 819 819
642 645 646 648 649 651 654 656 658 660 663 665 668 670 671 672 673 675 678 682 687 691 694 696 698 699 701 703 705 708 711 715 718 720 723 725 728 732 735 738 740 743 746 750 754 757 760 764 767 770 773 776 779 782 785 788 792 794 796 798 800 802 803 805 806 807 809 810 811 812 813 814 814 815 816 816 816 816 816 816 817 817 817 817 817
639 640 642 644 646 649 651 653 655 657 658 660 662 663 666 668 670 670 671 672 675 678 682 687 690 693 695 697 699 703 707 712 715 718 720 723 725 728 731 733 736 739 742 746 751 755 759 762 766 769 772 775 779 782 785 788 791 793 795 797 799 800 802 803 804 805 807 808 809 810 811 812 812 813 814 814 815 814 814 814 815 815 815 815 815
636 637 639 640 642 645 648 650 651 653 655 656 656 657 659 662 665 667 669 670 669 669 671 675 680 685 688 689 692 696 702 707 710 714 718 721 724 726 729 731 733 735 738 742 747 752 757 761 764 768 771 774 777 781 784 787 790 792 794 796 797 798 800 800 802 803 804 806 807 808 809 810 810 811 812 812 812 812 812 812 812 813 814 814 813
636 636 637 638 640 642 643 645 646 649 650 651 652 653 655 657 659 661 664 667 669 670 671 671 672 674 678 683 687 690 694 700 705 710 714 718 722 725 728 732 733 733 733 737 743 748 754 759 763 766 770 773 776 780 783 786 788 790 792 794 795 796 798 799 800 802 802 803 805 805 807 808 808 809 810 810 810 810 810 810 810 811 812 812 812
635 636 636 637 638 638 639 640 642 644 645 646 648 649 650 652 653 654 655 657 660 664 668 669 670 669 672 676 681 686 692 697 701 705 708 712 717 722 727 732 733 731 730 733 738 744 751 756 760 764 768 771 775 779 782 785 787 788 790 792 793 795 796 797 799 800 800 801 802 803 804 806 806 807 808 807 807 808 808 808 809 810 810 811 811
634 635 636 637 637 637 638 638 639 640 640 641 642 643 644 646 647 647 647 648 650 652 656 661 666 670 674 678 680 684 690 694 697 701 704 708 712 716 721 728 730 730 729 731 734 740 748 753 757 761 765 769 773 777 780 783 785 786 788 789 791 793 794 795 796 797 798 799 800 801 802 803 804 805 805 805 805 805 806 806 807 808 809 810 810
634 634 635 637 638 638 639 640 641 641 641 641 641 640 640 641 641 640 640 641 642 643 645 649 653 658 666 674 679 681 683 686 691 697 702 706 709 712 717 724 728 729 729 729 731 737 745 750 755 758 762 767 771 775 778 780 782 784 785 787 789 791 792 794 794 795 796 797 798 799 800 801 802 802 802 803 803 803 804 805 805 806 808 808 808
634 635 636 637 638 639 640 641 642 643 644 644 644 643 642 640 638 637 637 636 637 637 639 641 643 644 651 661 668 672 676 680 685 692 698 702 707 711 716 722 727 728 727 726 728 734 741 747 752 757 760 764 768 772 775 777 779 781 783 785 787 789 790 791 792 793 794 795 796 797 798 798 799 800 800 801 801 801 802 803 804 805 806 807 807
636 637 638 638 639 639 640 641 642 643 644 645 645 645 645 643 639 637 636 635 635 633 634 637 640 642 649 657 661 663 668 673 679 687 695 701 705 709 714 721 726 728 726 724 726 732 737 743 749 754 757 761 766 769 772 774 776 779 781 783 785 787 788 789 790 791 792 793 793 794 795 796 797 797 798 798 799 799 800 801 802 804 805 806 806
639 639 639 639 639 639 640 640 641 642 643 643 644 645 646 646 643 640 637 636 636 636 634 633 635 637 644 651 654 657 662 669 674 680 689 697 703 708 714 720 725 726 725 724 725 730 736 741 746 750 754 758 763 767 769 772 774 776 779 782 783 785 786 787 788 789 789 790 791 791 792 793 794 795 796 796 796 797 798 799 801 802 803 804 804
641 641 641 641 641 641 640 640 640 641 641 642 643 643 644 644 644 643 640 635 634 635 635 632 631 632 638 646 651 654 659 667 673 677 681 689 698 706 713 719 724 726 725 724 725 730 736 740 743 747 751 755 760 764 767 769 772 775 777 780 781 782 783 784 785 786 786 787 788 789 790 792 793 794 794 794 794 795 796 797 799 801 802 803 802
643 643 643 643 643 643 643 642 642 642 641 641 642 643 642 640 639 640 640 635 627 625 628 629 629 630 636 646 653 656 659 667 675 678 680 685 694 703 710 717 723 725 725 724 726 729 734 737 740 744 748 752 757 762 765 767 770 772 775 777 778 779 780 781 782 783 784 785 786 787 789 790 791 792 792 792 793 793 794 795 797 799 800 801 801
645 645 645 645 646 646 646 645 644 644 643 643 643 642 640 636 632 629 631 630 622 614 616 624 630 634 639 645 651 656 661 670 678 681 683 687 693 699 706 713 718 720 721 722 725 728 732 735 738 741 745 750 755 759 762 765 768 770 773 774 775 776 778 779 781 782 783 784 785 786 787 789 790 790 790 790 791 791 792 794 796 798 799 800 799
647 647 647 647 647 647 647 647 646 646 646 645 645 643 639 636 630 623 622 626 621 611 610 618 627 635 642 647 651 655 661 670 678 683 688 694 698 702 707 711 713 716 718 721 724 727 730 734 737 739 744 749 753 757 760 763 766 768 770 771 773 775 777 778 779 780 781 783 784 785 786 787 788 788 788 788 789 789 791 793 795 797 798 798 797
649 648 648 648 649 649 649 649 648 648 646 645 645 643 639 635 629 624 627 632 624 609 607 618 625 632 640 648 652 655 660 669 677 684 691 698 704 708 711 713 713 714 717 720 722 725 728 732 735 738 743 748 752 755 758 761 763 766 767 769 772 774 775 776 777 779 780 781 783 784 785 785 786 786 786 786 787 788 790 792 793 795 796 796 795
650 650 650 650 650 650 651 651 650 650 648 646 645 643 640 637 632 628 634 640 628 608 608 623 632 636 644 653 655 655 659 667 675 683 691 700 708 712 714 714 714 715 717 719 721 724 726 730 733 738 742 747 751 753 756 759 761 763 765 768 770 772 773 774 775 777 778 780 781 783 783 784 784 784 784 785 785 787 788 790 792 793 794 793 793
652 652 652 653 653 652 652 653 653 653 651 648 646 644 643 642 640 637 640 646 639 623 620 631 639 643 651 657 657 656 659 664 672 681 692 701 709 713 714 714 714 715 716 719 721 723 725 728 732 737 742 746 749 752 754 757 759 761 764 766 768 770 771 772 773 775 777 779 780 781 781 782 782 783 783 783 784 785 787 789 790 791 791 791 790
654 654 654 654 654 653 653 653 655 655 654 650 647 646 646 646 647 646 644 647 646 640 637 642 648 654 659 659 657 656 658 663 671 682 693 702 708 711 712 712 712 713 715 717 719 721 723 727 732 737 740 744 747 750 752 755 757 760 762 765 766 768 769 770 771 773 775 777 778 779 780 780 780 781 781 781 782 784 785 787 788 789 789 789 788
655 655 655 654 654 653 653 654 654 654 654 652 649 648 648 647 648 648 647 646 646 645 646 650 655 659 662 661 659 660 663 668 677 687 696 702 706 707 709 710 711 712 714 715 717 720 723 726 731 735 738 742 745 747 750 753 755 758 760 762 764 765 766 767 769 771 773 775 776 777 778 778 779 779 779 780 781 782 783 785 787 787 787 786 786
656 656 655 655 654 653 654 654 654 654 654 654 653 652 651 649 648 647 647 648 649 648 649 652 655 659 662 664 665 667 671 677 684 691 696 700 703 704 706 708 710 712 713 715 717 720 723 726 730 734 737 740 743 745 748 751 753 756 758 760 761 763 764 765 767 769 771 773 774 775 775 776 776 777 777 778 779 780 782 784 785 785 785 784 783
658 657 656 656 655 655 655 655 655 655 655 655 656 656 656 655 654 653 652 652 653 654 655 657 659 662 666 669 672 675 678 683 688 692 696 698 701 703 705 707 709 711 713 715 718 720 723 726 729 733 736 739 742 744 747 749 752 754 756 758 759 760 762 764 765 767 769 771 772 773 773 773 774 775 775 776 777 778 780 782 783 783 782 781 781
659 658 658 657 656 655 655 656 656 657 656 657 657 658 659 660 661 661 660 660 660 661 662 664 666 669 672 675 678 681 683 686 689 692 694 697 699 702 704 706 708 710 713 715 718 720 723 726 729 732 735 738 740 743 746 748 750 752 754 756 757 759 760 762 764 766 767 769 769 770 770 771 771 772 773 774 776 777 779 780 781 781 780 779 778
661 661 660 659 656 655 656 657 658 658 658 658 659 660 661 663 664 665 666 665 665 666 668 669 671 674 676 679 681 683 685 687 689 692 694 696 699 701 703 705 708 711 713 716 718 720 723 726 728 731 734 736 739 741 744 746 749 751 752 754 755 757 759 761 763 764 765 766 767 768 768 768 769 770 772 773 775 776 778 779 779 778 777 776 776
664 663 662 661 659 658 658 659 659 660 660 660 661 661 662 664 666 667 669 669 669 670 671 673 675 677 678 680 681 683 685 687 689 691 694 696 698 700 703 705 708 711 714 716 719 721 723 725 728 730 732 735 737 740 742 744 747 749 750 752 754 756 758 759 761 762 764 764 765 765 766 766 767 769 771 772 773 775 776 777 777 776 775 774 773
667 666 665 663 662 662 663 663 664 663 663 662 663 663 665 666 667 668 670 671 672 672 673 675 676 677 679 680 682 683 685 687 689 692 694 696 698 701 703 706 709 711 714 716 719 721 723 725 727 729 731 733 736 738 740 743 745 747 748 750 752 754 756 758 759 760 761 762 762 763 764 765 766 768 769 770 772 773 774 775 775 774 773 772 771
671 670 669 667 667 666 667 667 667 667 666 665 665 665 667 669 669 669 670 672 673 674 675 675 676 678 679 681 682 684 686 688 690 692 694 696 699 701 704 706 709 712 714 716 719 721 723 725 726 728 730 732 734 736 739 741 743 745 747 749 751 752 754 756 757 758 759 760 760 761 762 763 765 766 767 769 770 772 773 773 773 772 771 770 769
674 673 672 671 670 670 670 669 668 667 667 667 667 667 669 670 670 670 671 673 673 673 674 675 676 677 679 680 682 684 686 688 690 693 695 697 700 702 704 707 709 712 714 716 718 720 722 724 726 727 729 731 733 735 737 740 742 744 745 747 749 751 753 754 755 756 757 758 758 759 760 761 763 764 765 767 769 770 771 772 771 770 769 768 767
678 677 676 675 674 673 673 672 670 669 669 669 669 669 671 672 672 672 673 674 674 674 675 674 675 677 679 680 682 684 686 689 692 694 696 698 700 702 705 707 709 711 713 715 717 719 721 723 725 727 728 730 732 734 736 738 740 742 744 746 748 750 751 752 753 754 755 756 757 758 759 760 761 762 764 766 767 769 770 770 770 769 767 766 765